NKS1024 KLAX-KLAS

Flight info

Callsign NKS1024
Flight time 0h 45m
Altitude 29000
Route ORCKA5 MISEN RNDRZ4
Aircraft A321/M-VGDW/C

Departure

Time 2026-05-08 00:07
Airport Los Angeles International Airport (KLAX)

Arrival

Time 2026-05-08 00:53
Airport Harry Reid International Airport (KLAS)
Time Latitude Longitude Altitude Speed Heading
2026-05-07 23:47 33.94096 -118.40375 95 ft 0 kts 259°
2026-05-07 23:57 33.94096 -118.40374 95 ft 0 kts 259°
2026-05-07 23:58 33.94098 -118.40361 96 ft 3 kts 259°
2026-05-07 23:58 33.94101 -118.40338 96 ft 3 kts 244°
2026-05-07 23:58 33.94108 -118.40326 95 ft 3 kts 183°
2026-05-07 23:59 33.94115 -118.40326 95 ft 1 kts 173°
2026-05-07 23:59 33.94099 -118.40324 94 ft 3 kts 173°
2026-05-07 23:59 33.94078 -118.40321 97 ft 3 kts 173°
2026-05-07 23:59 33.94058 -118.40318 97 ft 3 kts 173°
2026-05-08 00:00 33.94039 -118.40315 98 ft 2 kts 173°
2026-05-08 00:00 33.94033 -118.40314 97 ft 0 kts 173°
2026-05-08 00:01 33.94031 -118.40314 96 ft 2 kts 173°
2026-05-08 00:02 33.93985 -118.40305 98 ft 10 kts 170°
2026-05-08 00:02 33.93919 -118.40294 100 ft 10 kts 173°
2026-05-08 00:02 33.93862 -118.40263 103 ft 9 kts 121°
2026-05-08 00:02 33.93862 -118.40163 104 ft 15 kts 83°
2026-05-08 00:03 33.93876 -118.40029 105 ft 17 kts 83°
2026-05-08 00:03 33.93889 -118.39886 104 ft 18 kts 82°
2026-05-08 00:03 33.93905 -118.39730 103 ft 19 kts 83°
2026-05-08 00:03 33.93922 -118.39566 103 ft 20 kts 82°
2026-05-08 00:04 33.93940 -118.39392 101 ft 22 kts 84°
2026-05-08 00:04 33.93959 -118.39207 101 ft 23 kts 83°
2026-05-08 00:04 33.93979 -118.39018 102 ft 23 kts 84°
2026-05-08 00:04 33.93999 -118.38824 100 ft 24 kts 83°
2026-05-08 00:05 33.94022 -118.38629 102 ft 24 kts 85°
2026-05-08 00:05 33.94039 -118.38436 103 ft 24 kts 81°
2026-05-08 00:05 33.94058 -118.38240 103 ft 21 kts 84°
2026-05-08 00:05 33.94075 -118.38099 103 ft 15 kts 83°
2026-05-08 00:06 33.94064 -118.38009 103 ft 8 kts 140°
2026-05-08 00:06 33.94027 -118.37998 108 ft 4 kts 171°
2026-05-08 00:06 33.93986 -118.38019 110 ft 9 kts 253°
2026-05-08 00:06 33.93974 -118.38131 110 ft 34 kts 263°
2026-05-08 00:07 33.93912 -118.38714 108 ft 104 kts 263°
2026-05-08 00:07 33.93797 -118.39817 112 ft 158 kts 263°
2026-05-08 00:07 33.93666 -118.41227 520 ft 171 kts 261°
2026-05-08 00:07 33.93539 -118.42662 1216 ft 174 kts 263°
2026-05-08 00:08 33.93304 -118.44135 1850 ft 187 kts 254°
2026-05-08 00:08 33.92813 -118.45669 2313 ft 206 kts 248°
2026-05-08 00:08 33.92211 -118.47324 2605 ft 228 kts 247°
2026-05-08 00:08 33.91533 -118.49157 2959 ft 249 kts 247°
2026-05-08 00:09 33.90813 -118.51102 3538 ft 258 kts 247°
2026-05-08 00:09 33.90073 -118.53084 4272 ft 261 kts 248°
2026-05-08 00:09 33.89323 -118.55079 5014 ft 263 kts 247°
2026-05-08 00:09 33.88564 -118.57093 5702 ft 266 kts 247°
2026-05-08 00:10 33.87795 -118.59142 6382 ft 270 kts 247°
2026-05-08 00:10 33.87019 -118.61216 7020 ft 274 kts 247°
2026-05-08 00:10 33.86224 -118.63329 7657 ft 279 kts 247°
2026-05-08 00:10 33.85316 -118.65410 8283 ft 286 kts 234°
2026-05-08 00:11 33.83815 -118.67014 8890 ft 295 kts 210°
2026-05-08 00:11 33.81854 -118.67761 9501 ft 301 kts 184°
2026-05-08 00:11 33.79777 -118.67436 10121 ft 304 kts 157°
2026-05-08 00:11 33.78014 -118.66099 10717 ft 304 kts 131°
2026-05-08 00:12 33.76881 -118.63988 11355 ft 301 kts 107°
2026-05-08 00:12 33.76587 -118.61559 11988 ft 299 kts 83°
2026-05-08 00:12 33.77169 -118.59153 12649 ft 298 kts 59°
2026-05-08 00:12 33.78484 -118.57287 13279 ft 299 kts 38°
2026-05-08 00:13 33.80135 -118.55746 13921 ft 302 kts 38°
2026-05-08 00:13 33.81810 -118.54204 14494 ft 305 kts 38°
2026-05-08 00:13 33.83510 -118.52641 14889 ft 314 kts 38°
2026-05-08 00:13 33.85299 -118.50990 14989 ft 334 kts 38°
2026-05-08 00:14 33.87201 -118.49229 15031 ft 355 kts 38°
2026-05-08 00:14 33.89163 -118.47408 15154 ft 372 kts 38°
2026-05-08 00:14 33.91237 -118.45476 15554 ft 380 kts 38°
2026-05-08 00:14 33.92832 -118.43609 15971 ft 381 kts 54°
2026-05-08 00:15 33.94147 -118.40813 16485 ft 386 kts 60°
2026-05-08 00:15 33.95596 -118.38078 17052 ft 389 kts 54°
2026-05-08 00:15 33.97225 -118.35464 17630 ft 392 kts 52°
2026-05-08 00:15 33.98894 -118.32906 18196 ft 395 kts 52°
2026-05-08 00:16 34.00602 -118.30241 18719 ft 398 kts 53°
2026-05-08 00:16 34.02254 -118.27543 19211 ft 401 kts 54°
2026-05-08 00:16 34.03868 -118.24789 19698 ft 404 kts 55°
2026-05-08 00:16 34.05457 -118.21985 20156 ft 407 kts 55°
2026-05-08 00:17 34.07039 -118.19139 20632 ft 409 kts 56°
2026-05-08 00:17 34.08622 -118.16276 21093 ft 412 kts 56°
2026-05-08 00:17 34.10224 -118.13392 21538 ft 415 kts 55°
2026-05-08 00:17 34.11843 -118.10504 21989 ft 417 kts 55°
2026-05-08 00:18 34.13482 -118.07607 22428 ft 419 kts 54°
2026-05-08 00:18 34.15134 -118.04692 22859 ft 422 kts 54°
2026-05-08 00:18 34.16781 -118.01780 23267 ft 425 kts 54°
2026-05-08 00:18 34.18452 -117.98818 23663 ft 427 kts 55°
2026-05-08 00:19 34.20127 -117.95839 24011 ft 430 kts 55°
2026-05-08 00:19 34.21809 -117.92843 24375 ft 432 kts 55°
2026-05-08 00:19 34.23499 -117.89833 24734 ft 434 kts 54°
2026-05-08 00:19 34.25172 -117.86850 25095 ft 436 kts 54°
2026-05-08 00:20 34.26880 -117.83804 25452 ft 438 kts 55°
2026-05-08 00:20 34.28590 -117.80753 25769 ft 440 kts 54°
2026-05-08 00:20 34.30309 -117.77684 26093 ft 442 kts 54°
2026-05-08 00:20 34.32031 -117.74597 26423 ft 444 kts 54°
2026-05-08 00:21 34.33764 -117.71487 26753 ft 446 kts 54°
2026-05-08 00:21 34.35505 -117.68374 27092 ft 448 kts 54°
2026-05-08 00:21 34.37293 -117.65284 27417 ft 449 kts 53°
2026-05-08 00:21 34.39128 -117.62212 27758 ft 451 kts 52°
2026-05-08 00:22 34.40990 -117.59142 28114 ft 453 kts 52°
2026-05-08 00:22 34.42863 -117.56062 28441 ft 455 kts 52°
2026-05-08 00:22 34.44738 -117.52966 28810 ft 456 kts 52°
2026-05-08 00:22 34.46000 -117.50867 28967 ft 456 kts 52°
2026-05-08 00:23 34.49736 -117.44609 29037 ft 466 kts 53°
2026-05-08 00:23 34.53528 -117.38201 29046 ft 468 kts 53°
2026-05-08 00:24 34.57323 -117.31783 29047 ft 468 kts 53°
2026-05-08 00:24 34.61117 -117.25364 29034 ft 468 kts 53°
2026-05-08 00:25 34.64912 -117.18951 29009 ft 467 kts 53°
2026-05-08 00:25 34.68701 -117.12531 28975 ft 467 kts 53°
2026-05-08 00:26 34.72480 -117.06108 28930 ft 467 kts 53°
2026-05-08 00:26 34.76261 -116.99678 28942 ft 467 kts 53°
2026-05-08 00:27 34.80032 -116.93253 28959 ft 467 kts 53°
2026-05-08 00:27 34.83798 -116.86814 28967 ft 467 kts 53°
2026-05-08 00:28 34.87550 -116.80373 28967 ft 466 kts 53°
2026-05-08 00:28 34.91299 -116.73936 28972 ft 466 kts 53°
2026-05-08 00:29 34.95027 -116.67483 28952 ft 463 kts 54°
2026-05-08 00:29 34.96818 -116.64314 28914 ft 446 kts 54°
2026-05-08 00:29 34.98550 -116.61223 28645 ft 439 kts 54°
2026-05-08 00:30 35.00265 -116.58155 28376 ft 437 kts 54°
2026-05-08 00:30 35.01975 -116.55097 28101 ft 436 kts 54°
2026-05-08 00:30 35.03688 -116.52039 27841 ft 437 kts 54°
2026-05-08 00:30 35.05406 -116.48983 27581 ft 437 kts 54°
2026-05-08 00:31 35.07127 -116.45919 27329 ft 438 kts 54°
2026-05-08 00:31 35.08848 -116.42853 27079 ft 438 kts 54°
2026-05-08 00:31 35.10663 -116.39867 26827 ft 438 kts 48°
2026-05-08 00:31 35.12741 -116.37154 26576 ft 438 kts 45°
2026-05-08 00:32 35.14841 -116.34455 26327 ft 438 kts 45°
2026-05-08 00:32 35.16937 -116.31751 26086 ft 438 kts 45°
2026-05-08 00:32 35.19022 -116.29051 25775 ft 434 kts 45°
2026-05-08 00:32 35.21085 -116.26372 25141 ft 431 kts 45°
2026-05-08 00:33 35.23130 -116.23712 24514 ft 428 kts 46°
2026-05-08 00:33 35.25138 -116.21034 23890 ft 426 kts 46°
2026-05-08 00:33 35.27105 -116.18344 23240 ft 423 kts 47°
2026-05-08 00:33 35.29043 -116.15654 22588 ft 419 kts 47°
2026-05-08 00:34 35.30956 -116.12989 21984 ft 414 kts 47°
2026-05-08 00:34 35.32854 -116.10357 21390 ft 410 kts 47°
2026-05-08 00:34 35.34738 -116.07756 20805 ft 406 kts 47°
2026-05-08 00:34 35.36604 -116.05190 20247 ft 402 kts 47°
2026-05-08 00:35 35.38458 -116.02645 19700 ft 399 kts 47°
2026-05-08 00:35 35.40300 -116.00116 19163 ft 396 kts 47°
2026-05-08 00:35 35.42130 -115.97600 18651 ft 394 kts 47°
2026-05-08 00:35 35.43948 -115.95095 18149 ft 392 kts 47°
2026-05-08 00:36 35.45754 -115.92603 17612 ft 389 kts 47°
2026-05-08 00:36 35.47538 -115.90144 17182 ft 383 kts 47°
2026-05-08 00:36 35.49297 -115.87718 16835 ft 375 kts 47°
2026-05-08 00:36 35.50979 -115.85391 16700 ft 353 kts 47°
2026-05-08 00:37 35.52557 -115.83198 16580 ft 332 kts 47°
2026-05-08 00:37 35.54032 -115.81149 16302 ft 321 kts 47°
2026-05-08 00:37 35.55513 -115.79100 16063 ft 326 kts 46°
2026-05-08 00:38 35.58584 -115.74852 15579 ft 335 kts 46°
2026-05-08 00:38 35.60133 -115.72719 15337 ft 334 kts 46°
2026-05-08 00:38 35.61710 -115.70581 15090 ft 333 kts 46°
2026-05-08 00:38 35.63269 -115.68486 14859 ft 332 kts 45°
2026-05-08 00:39 35.64829 -115.66394 14630 ft 332 kts 46°
2026-05-08 00:39 35.66362 -115.64335 14394 ft 331 kts 46°
2026-05-08 00:39 35.67909 -115.62252 14159 ft 330 kts 46°
2026-05-08 00:39 35.69451 -115.60170 13929 ft 329 kts 46°
2026-05-08 00:40 35.70987 -115.58092 13689 ft 328 kts 46°
2026-05-08 00:40 35.72554 -115.56064 13436 ft 325 kts 40°
2026-05-08 00:40 35.74392 -115.54478 13181 ft 322 kts 28°
2026-05-08 00:40 35.76322 -115.53136 13030 ft 312 kts 28°
2026-05-08 00:41 35.78172 -115.51844 13026 ft 301 kts 28°
2026-05-08 00:41 35.79985 -115.50574 13027 ft 299 kts 28°
2026-05-08 00:41 35.81793 -115.49306 13033 ft 299 kts 28°
2026-05-08 00:41 35.83559 -115.48067 13032 ft 299 kts 28°
2026-05-08 00:42 35.85361 -115.46801 13030 ft 298 kts 28°
2026-05-08 00:42 35.87161 -115.45536 13030 ft 298 kts 28°
2026-05-08 00:42 35.88965 -115.44269 13031 ft 298 kts 28°
2026-05-08 00:42 35.90768 -115.43002 13029 ft 299 kts 28°
2026-05-08 00:43 35.92582 -115.41730 12684 ft 299 kts 28°
2026-05-08 00:43 35.94375 -115.40461 12349 ft 297 kts 31°
2026-05-08 00:43 35.95884 -115.38733 12021 ft 300 kts 53°
2026-05-08 00:43 35.96754 -115.36393 11677 ft 304 kts 76°
2026-05-08 00:44 35.97043 -115.33798 11342 ft 306 kts 81°
2026-05-08 00:44 35.97281 -115.31186 11012 ft 306 kts 82°
2026-05-08 00:44 35.97513 -115.28572 10680 ft 306 kts 82°
2026-05-08 00:44 35.97741 -115.25962 10352 ft 306 kts 83°
2026-05-08 00:45 35.97970 -115.23358 10026 ft 305 kts 83°
2026-05-08 00:45 35.98201 -115.20759 9686 ft 304 kts 83°
2026-05-08 00:45 35.98430 -115.18171 9335 ft 303 kts 83°
2026-05-08 00:45 35.98660 -115.15590 8985 ft 302 kts 83°
2026-05-08 00:46 35.98890 -115.13022 8637 ft 300 kts 83°
2026-05-08 00:46 35.99119 -115.10468 8296 ft 299 kts 83°
2026-05-08 00:46 35.99344 -115.07927 8048 ft 294 kts 83°
2026-05-08 00:46 35.99561 -115.05474 8025 ft 279 kts 83°
2026-05-08 00:47 35.99764 -115.03178 8041 ft 260 kts 83°
2026-05-08 00:47 35.99924 -115.00989 8027 ft 255 kts 89°
2026-05-08 00:47 35.99912 -114.98797 7622 ft 256 kts 90°
2026-05-08 00:47 35.99898 -114.96606 7252 ft 254 kts 90°
2026-05-08 00:48 35.99950 -114.94442 6989 ft 248 kts 78°
2026-05-08 00:48 36.00600 -114.92494 6852 ft 248 kts 53°
2026-05-08 00:48 36.01858 -114.91118 6505 ft 239 kts 26°
2026-05-08 00:48 36.03418 -114.90572 6055 ft 230 kts
2026-05-08 00:49 36.04970 -114.90855 5514 ft 225 kts 338°
2026-05-08 00:49 36.06238 -114.91871 5215 ft 211 kts 314°
2026-05-08 00:49 36.07041 -114.93309 5005 ft 199 kts 292°
2026-05-08 00:49 36.07362 -114.94947 4777 ft 196 kts 272°
2026-05-08 00:50 36.07369 -114.96632 4525 ft 196 kts 268°
2026-05-08 00:50 36.07347 -114.98306 4281 ft 195 kts 269°
2026-05-08 00:50 36.07358 -114.99984 4063 ft 195 kts 269°
2026-05-08 00:50 36.07366 -115.01662 3812 ft 195 kts 269°
2026-05-08 00:51 36.07368 -115.03336 3562 ft 193 kts 269°
2026-05-08 00:51 36.07374 -115.04938 3302 ft 179 kts 269°
2026-05-08 00:51 36.07374 -115.06438 3067 ft 171 kts 269°
2026-05-08 00:51 36.07368 -115.07842 2868 ft 165 kts 270°
2026-05-08 00:52 36.07364 -115.09281 2704 ft 163 kts 271°
2026-05-08 00:52 36.07369 -115.10675 2523 ft 162 kts 271°
2026-05-08 00:52 36.07365 -115.12050 2379 ft 163 kts 271°
2026-05-08 00:52 36.07365 -115.13448 2201 ft 158 kts 272°
2026-05-08 00:53 36.07366 -115.14634 2190 ft 114 kts 269°
2026-05-08 00:53 36.07378 -115.15274 2187 ft 35 kts 289°
2026-05-08 00:53 36.07467 -115.15505 2188 ft 28 kts 300°
2026-05-08 00:53 36.07586 -115.15684 2189 ft 26 kts 315°
2026-05-08 00:54 36.07701 -115.15805 2192 ft 15 kts 325°
2026-05-08 00:54 36.07804 -115.15825 2189 ft 16 kts
2026-05-08 00:54 36.07918 -115.15826 2191 ft 17 kts 360°
2026-05-08 00:54 36.08041 -115.15826 2188 ft 18 kts 360°
2026-05-08 00:55 36.08167 -115.15825 2189 ft 18 kts
2026-05-08 00:55 36.08279 -115.15826 2189 ft 15 kts 360°
2026-05-08 00:55 36.08366 -115.15778 2190 ft 15 kts 47°
2026-05-08 00:55 36.08426 -115.15701 2189 ft 11 kts 44°
2026-05-08 00:56 36.08492 -115.15659 2188 ft 10 kts 34°
2026-05-08 00:56 36.08484 -115.15590 2190 ft 10 kts 138°
2026-05-08 00:56 36.08472 -115.15544 2189 ft 6 kts 66°
2026-05-08 00:56 36.08492 -115.15505 2190 ft 5 kts 56°
2026-05-08 00:57 36.08505 -115.15482 2188 ft 1 kts 56°
2026-05-08 00:57 36.08506 -115.15480 2192 ft 0 kts 56°